Overview Statistics Trail Chart Weather Telemetry Raw packets
 

This is the latest recevied weather packets stored in our database for station/object SV9TNF-52. If no packets are shown the sender has not sent any weather packets the latest 10 day(s).

<< 40 41 42 43 44 45 46 >>
Time Temp. Humidity Pressure Rain* Wind** Luminosity Snow
1788387537 22.78° C 47% 1019.3 hPa 0 mm 5.81 m/s, 244° - -
1788387237 22.78° C 47% 1019.3 hPa 0 mm 7.6 m/s, 206° - -
1788386937 22.22° C 47% 1019.3 hPa 0 mm 6.71 m/s, 196° - -
1788386643 22.22° C 47% 1019.3 hPa 0 mm 5.81 m/s, 263° - -
1788386336 22.78° C 47% 1019.3 hPa 0 mm 5.36 m/s, 190° - -
1788386036 22.78° C 47% 1019.3 hPa 0 mm 6.26 m/s, 214° - -
1788385736 22.78° C 47% 1019.3 hPa 0 mm 6.26 m/s, 210° - -
1788385436 22.78° C 47% 1019.3 hPa 0 mm 6.26 m/s, 190° - -
1788385136 22.78° C 47% 1019.3 hPa 0 mm 7.15 m/s, 218° - -
1788384836 22.78° C 47% 1019.3 hPa 0 mm 6.26 m/s, 214° - -
1788384536 22.78° C 47% 1019.3 hPa 0 mm 4.92 m/s, 237° - -
1788384236 22.78° C 47% 1019.3 hPa 0 mm 5.81 m/s, 234° - -
1788383936 22.78° C 47% 1019.3 hPa 0 mm 4.92 m/s, 248° - -
1788383635 22.78° C 48% 1019.3 hPa 0 mm 5.36 m/s, 228° - -
1788383335 22.78° C 48% 1019.3 hPa 0 mm 7.6 m/s, 236° - -
1788383035 22.78° C 49% 1019.3 hPa 0 mm 6.71 m/s, 263° - -
1788382735 23.33° C 49% 1019.6 hPa 0 mm 8.05 m/s, 244° - -
1788382435 23.33° C 49% 1019.6 hPa 0 mm 8.49 m/s, 261° - -
1788382135 23.33° C 50% 1019.6 hPa 0 mm 5.36 m/s, 275° - -
1788381835 23.33° C 50% 1019.6 hPa 0 mm 7.6 m/s, 194° - -
1788381535 23.33° C 51% 1019.6 hPa 0 mm 4.02 m/s, 205° - -
1788381235 23.33° C 51% 1019.6 hPa 0 mm 8.49 m/s, 269° - -
1788380935 23.33° C 51% 1019.6 hPa 0 mm 5.81 m/s, 187° - -
1788380634 22.78° C 52% 1019.6 hPa 0 mm 7.15 m/s, 206° - -
1788380334 23.33° C 52% 1019.6 hPa 0 mm 6.71 m/s, 231° - -

* Rain latest hour (hover to see other rain measurements)
** Current wind speed in m/s (hover to see current wind gust speed)